Вернуться в каталог

STARLINK-32639

АктивенСвязьVLEO
NORAD 62153·PAYLOAD·🇺🇸 United States

Запущен Nov 30, 2024 с Cape Canaveral Space Force Station

Loading…

Ближайшие Пролёты (ближайшие 24 часа)

TLE

СвежийSource: CelesTrak SupGP

Эпоха: Sep 14, 2026, 21:40 UTC

1 62153C 24224Q   26257.90326389 -.00052769  00000+0 -19110-2 0  2574
2 62153  43.0019 169.7271 0001351 269.3640 156.0461 15.27609829    12

Отслеживайте STARLINK-32639 в реальном времени с AllMySat

Download on the App Store